Location: Dresden
(51.0500°N, 13.7500°E)
Time: 18:51:29
(UTC+00:00)

ISS - Pass Details

Date: 23 March 2019
Orbit: 408 x 410 km, 51.6° (Epoch: 22 April)

Event Time Altitude Azimuth Distance (km) Brightness Sun altitude
Rises 19:17:52 0° 236° (WSW) 2,330 0.4 -18.3°
Reaches altitude 10° 19:19:59 10° 231° (SW) 1,471 -0.7 -18.6°
Enters shadow 19:22:31 40° 194° (SSW) 615 -3.1 -18.9°
